Location: Cactus School
(34.5700°N, 118.0931°W)
Time: 01:56:05
(UTC-07:00)

Courier 1B - Pass Details

Date: 30 April 2024
Orbit: 962 x 1208 km, 28.3° (Epoch: 23 May)

Event Time Altitude Azimuth Distance (km) Brightness Sun altitude
Exits shadow 05:10:56 12° 229° (SW) 2,851 9.3 -10.6°
Maximum altitude 05:12:57 13° 212° (SSW) 2,727 9.3 -10.3°
Drops below altitude 10° 05:16:06 10° 185° (S) 2,924 9.7 -9.7°
Sets 05:20:31 0° 160° (SSE) 3,816 10.5 -8.9°
